KE9DBJ Weather Reports


time (UTC)temp
C
wind
direction
speed
KPH
gust
KPH
rain 1hr
cm
rain 24hr
cm
rain mn
cm
humidity
%
barometer
mb
20260905234515 28 0.0 0.0 0.00 0.00 0.00 79 1011.0
20260905233519 29 0.0 0.0 0.00 0.00 0.00 78 1011.2
20260905232523 29 0.0 0.0 0.00 0.00 0.00 77 1011.2
20260905231528 30 254 1.6 3.2 0.00 0.00 0.00 74 1011.1
20260905230532 30 0.0 0.0 0.00 0.00 0.00 74 1011.1
20260905225558 30 0.0 0.0 0.00 0.00 0.00 71 1011.1
20260905224522 31 0.0 0.0 0.00 0.00 0.00 68 1011.0
20260905223527 31 0.0 0.0 0.00 0.00 0.00 66 1010.8
20260905222525 31 177 1.6 3.2 0.00 0.00 0.00 65 1010.9
20260905221517 31 180 0.0 3.2 0.00 0.00 0.00 62 1010.9
20260905220521 32 301 1.6 4.8 0.00 0.00 0.00 57 1010.8
20260905215520 32 277 3.2 6.4 0.00 0.00 0.00 56 1010.7
20260905214518 33 22 4.8 8.0 0.00 0.00 0.00 55 1010.8
20260905213516 33 334 4.8 6.4 0.00 0.00 0.00 55 1010.8
20260905212601 33 304 4.8 8.0 0.00 0.00 0.00 54 1010.9
20260905211525 33 333 4.8 6.4 0.00 0.00 0.00 52 1011.0
20260905210529 34 292 4.8 8.0 0.00 0.00 0.00 50 1011.1
20260905205536 34 328 3.2 8.0 0.00 0.00 0.00 50 1011.2
20260905204520 33 356 3.2 6.4 0.00 0.00 0.00 53 1011.3
20260905203524 34 20 4.8 6.4 0.00 0.00 0.00 50 1011.4
20260905202528 34 320 6.4 9.7 0.00 0.00 0.00 49 1011.4
20260905201533 35 30 6.4 8.0 0.00 0.00 0.00 50 1011.5
20260905200539 35 100 3.2 4.8 0.00 0.00 0.00 49 1011.6
20260905195523 35 319 4.8 8.0 0.00 0.00 0.00 48 1011.7
20260905194548 35 275 4.8 6.4 0.00 0.00 0.00 48 1011.9
20260905193532 35 331 4.8 8.0 0.00 0.00 0.00 49 1012.1
20260905192518 35 35 3.2 6.4 0.00 0.00 0.00 49 1012.2
20260905191522 35 316 4.8 8.0 0.00 0.00 0.00 49 1012.3
20260905190527 35 20 4.8 9.7 0.00 0.00 0.00 49 1012.5
20260905185551 35 291 6.4 11.3 0.00 0.00 0.00 48 1012.5
20260905184538 35 346 4.8 8.0 0.00 0.00 0.00 50 1012.6
20260905183542 35 305 6.4 8.0 0.00 0.00 0.00 48 1012.8
20260905182526 35 293 4.8 8.0 0.00 0.00 0.00 49 1012.8
20260905181550 35 288 6.4 9.7 0.00 0.00 0.00 49 1012.8
20260905180557 34 300 4.8 8.0 0.00 0.00 0.00 50 1012.8
20260905175520 34 302 6.4 8.0 0.00 0.00 0.00 50 1012.9
20260905174525 33 335 4.8 8.0 0.00 0.00 0.00 51 1013.0
20260905173549 33 274 6.4 9.7 0.00 0.00 0.00 52 1013.3
20260905172515 33 301 4.8 8.0 0.00 0.00 0.00 52 1013.4
20260905171520 32 337 3.2 6.4 0.00 0.00 0.00 53 1013.5
20260905170544 32 44 4.8 6.4 0.00 0.00 0.00 53 1013.8
20260905165528 32 309 4.8 6.4 0.00 0.00 0.00 51 1013.8
20260905164515 32 97 4.8 8.0 0.00 0.00 0.00 52 1014.0
20260905163539 32 311 4.8 8.0 0.00 0.00 0.00 54 1014.2
20260905162523 31 333 4.8 8.0 0.00 0.00 0.00 54 1014.1
20260905161521 31 152 4.8 6.4 0.00 0.00 0.00 54 1014.1
20260905160520 31 155 1.6 4.8 0.00 0.00 0.00 54 1014.2
20260905155518 31 50 3.2 6.4 0.00 0.00 0.00 53 1014.0
20260905154516 31 38 3.2 6.4 0.00 0.00 0.00 51 1014.3
20260905153515 30 64 3.2 6.4 0.00 0.00 0.00 52 1014.0
20260905152551 30 129 3.2 4.8 0.00 0.00 0.00 53 1013.8
20260905151517 30 164 4.8 8.0 0.00 0.00 0.00 53 1013.8
20260905150522 29 304 3.2 8.0 0.00 0.00 0.00 55 1013.8
20260905145526 29 94 3.2 4.8 0.00 0.00 0.00 55 1014.0
20260905144530 28 0 1.6 4.8 0.00 0.00 0.00 57 1014.0
20260905143516 28 102 1.6 4.8 0.00 0.00 0.00 60 1014.3
20260905142521 27 123 3.2 6.4 0.00 0.00 0.00 61 1014.5
20260905141525 27 124 3.2 4.8 0.00 0.00 0.00 63 1014.6
20260905140529 26 22 4.8 6.4 0.00 0.00 0.00 66 1014.7
20260905135515 26 144 3.2 6.4 0.00 0.00 0.00 67 1015.0
20260905134520 26 332 4.8 8.0 0.00 0.00 0.00 68 1015.3
20260905133524 25 49 4.8 8.0 0.00 0.00 0.00 74 1015.4
20260905132528 24 29 3.2 4.8 0.00 0.00 0.00 78 1015.5
20260905131552 23 306 1.6 3.2 0.00 0.00 0.00 80 1015.6
20260905130519 23 21 3.2 6.4 0.00 0.00 0.00 78 1015.7
20260905125523 23 110 1.6 4.8 0.00 0.00 0.00 79 1015.8
20260905124527 22 66 3.2 6.4 0.00 0.00 0.00 81 1016.1
20260905123532 22 271 3.2 6.4 0.00 0.00 0.00 80 1016.5
20260905122518 22 208 1.6 4.8 0.00 0.00 0.00 81 1016.4
20260905121522 22 176 3.2 4.8 0.00 0.00 0.00 83 1016.2
20260905120527 22 180 0.0 1.6 0.00 0.00 0.00 84 1015.9
20260905115531 22 0.0 0.0 0.00 0.00 0.00 83 1015.8
20260905114537 22 180 0.0 3.2 0.00 0.00 0.00 82 1015.5
20260905113521 22 66 6.4 11.3 0.00 0.00 0.00 81 1015.5
20260905112606 22 70 8.0 12.9 0.00 0.00 0.00 82 1015.5
20260905111530 22 32 11.3 16.1 0.00 0.00 0.00 82 1015.5
20260905110516 22 80 16.1 24.1 0.00 0.00 0.00 84 1015.5
20260905105520 22 65 16.1 24.1 0.00 0.00 0.00 87 1014.8
20260905104525 21 29 11.3 19.3 0.00 0.00 0.00 92 1012.8
20260905103523 21 0.0 0.0 0.00 0.00 0.00 92 1012.8
20260905102515 21 0.0 0.0 0.00 0.00 0.00 92 1013.2
20260905101519 21 0.0 0.0 0.00 0.00 0.00 92 1013.3
20260905100518 21 0.0 0.0 0.00 0.00 0.00 92 1013.5
20260905095516 21 0.0 0.0 0.00 0.00 0.00 92 1014.0
20260905094532 21 0.0 0.0 0.00 0.00 0.00 92 1013.8
20260905093519 21 0.0 0.0 0.00 0.00 0.00 92 1013.3
20260905092523 21 0.0 0.0 0.00 0.00 0.00 92 1013.3
20260905091527 21 0.0 0.0 0.00 0.00 0.00 92 1013.1
20260905090532 21 0.0 0.0 0.00 0.00 0.00 92 1012.8
20260905085518 21 0.0 0.0 0.00 0.00 0.00 92 1013.1
20260905084522 21 0.0 0.0 0.00 0.00 0.00 92 1013.1
20260905083526 21 0.0 0.0 0.00 0.00 0.00 92 1013.1
20260905082530 21 0.0 0.0 0.00 0.00 0.00 92 1012.9
20260905081516 21 0.0 0.0 0.00 0.00 0.00 92 1012.8
20260905080521 21 0.0 0.0 0.00 0.00 0.00 92 1012.6
20260905075525 21 0.0 0.0 0.00 0.00 0.00 92 1012.5
20260905074529 21 0.0 0.0 0.00 0.00 0.00 92 1012.4
20260905073516 21 0.0 0.0 0.00 0.00 0.00 92 1012.5
20260905072540 21 0.0 0.0 0.00 0.00 0.00 92 1012.6
20260905071524 21 0.0 0.0 0.00 0.00 0.00 92 1012.7
20260905070528 21 0.0 0.0 0.00 0.00 0.00 92 1012.8
20260905065613 21 0.0 0.0 0.00 0.00 0.00 92 1013.0
20260905064519 21 0.0 0.0 0.00 0.00 0.00 92 1013.1
20260905063523 21 0.0 0.0 0.00 0.00 0.00 92 1013.3
20260905062527 21 0.0 0.0 0.00 0.00 0.00 92 1013.4
20260905061532 21 0.0 0.0 0.00 0.00 0.00 92 1013.5
20260905060518 21 0.0 0.0 0.00 0.00 0.00 92 1013.5
20260905055522 21 0.0 0.0 0.00 0.00 0.00 92 1013.8
20260905054546 21 0.0 0.0 0.00 0.00 0.00 92 1013.8
20260905053531 21 0.0 0.0 0.00 0.00 0.00 92 1013.8
20260905052517 22 0.0 0.0 0.00 0.00 0.00 92 1013.9
20260905051541 22 0.0 0.0 0.00 0.00 0.00 92 1014.0
20260905050546 22 0.0 0.0 0.00 0.00 0.00 92 1014.2
20260905045524 22 0.0 0.0 0.00 0.00 0.00 92 1014.3
20260905044537 22 0.0 0.0 0.00 0.00 0.00 92 1014.2
20260905043521 22 0.0 0.0 0.00 0.00 0.00 92 1014.2
20260905042519 22 0.0 0.0 0.00 0.00 0.00 92 1014.2
20260905041517 22 0.0 0.0 0.00 0.00 0.00 92 1014.2
20260905040515 22 0.0 0.0 0.00 0.00 0.00 92 1014.2
20260905035520 22 0.0 0.0 0.00 0.00 0.00 91 1014.2
20260905034544 22 0.0 0.0 0.00 0.00 0.00 91 1014.2
20260905033528 22 0.0 0.0 0.00 0.00 0.00 91 1014.2
20260905032515 22 0.0 0.0 0.00 0.00 0.00 91 1014.2
20260905031519 22 0.0 0.0 0.00 0.00 0.00 91 1014.1
20260905030623 22 0.0 0.0 0.00 0.00 0.00 91 1014.0
20260905025548 22 0.0 0.0 0.00 0.00 0.00 91 1014.0
20260905024532 22 0.0 0.0 0.00 0.00 0.00 91 1014.0
20260905023518 22 0.0 0.0 0.00 0.00 0.00 90 1014.0
20260905022602 23 0.0 0.0 0.00 0.00 0.00 90 1014.0
20260905021546 23 0.0 0.0 0.00 0.00 0.00 89 1014.0
20260905020531 23 0.0 0.0 0.00 0.00 0.00 89 1014.0
20260905015517 23 0.0 0.0 0.00 0.00 0.00 89 1014.0
20260905014522 23 0.0 0.0 0.00 0.00 0.00 88 1014.0
20260905013526 23 0.0 0.0 0.00 0.00 0.00 88 1014.0
20260905012530 23 252 0.0 3.2 0.00 0.00 0.00 88 1013.9
20260905011516 23 0.0 0.0 0.00 0.00 0.00 87 1013.8
20260905010520 24 180 0.0 1.6 0.00 0.00 0.00 87 1013.6
20260905005525 24 0.0 0.0 0.00 0.00 0.00 86 1013.6
20260905004529 25 0.0 0.0 0.00 0.00 0.00 84 1013.5
20260905003515 25 185 3.2 3.2 0.00 0.00 0.00 84 1013.5
20260905002520 25 121 1.6 3.2 0.00 0.00 0.00 83 1013.4
20260905001524 25 0.0 0.0 0.00 0.00 0.00 82 1013.3
20260905000528 25 0.0 0.0 0.00 0.00 0.00 82 1013.3
20260904235532 26 68 0.0 1.6 0.00 0.00 0.00 80 1013.0